User: anonymous   Login
Location: Betz
(49.1556°N, 2.9558°E)
Time: 11:36:38
(UTC+00:00)
Language:

Cosmos 2082 - Orbit

View from above orbital plane
View from above orbital plane
View from above satellite
View from above satellite

Ground track
Ground track

The orbit data is extracted from the following two-line orbital elements,

1 20624U 90046A   19316.80395333  .00000140  00000-0  97830-4 0  9993
2 20624  71.0387 175.5173 0013527 132.8703 227.3557 14.14272070521415
Epoch (UTC): 12 November 2019 19:17:41
Eccentricity: 0.0013527
inclination: 71.0387°
perigee height: 835 km
apogee height: 854 km
right ascension of ascending node: 175.5173°
argument of perigee: 132.8703°
revolutions per day: 14.14272070
mean anomaly at epoch: 227.3557°
orbit number at epoch: 52141

The dashed part of the orbit path shows where the satellite is in the earth's shadow,  

DLR